Location: Sungai Anya
(2.6167°N, 114.0500°E)
Time: 12:16:35
(UTC+00:00)

Cosmos 1153 Rocket - Visible Passes

Search period start: 29 May 2022 00:00
Search period end: 08 June 2022 00:00
Orbit: 953 x 1006 km, 82.9° (Epoch: 28 May)

Date Brightness Start Highest point End Pass type
(mag) Time Alt. Az. Time Alt. Az. Time Alt. Az.
29 May 6.3 21:14:56 10° NNE 21:20:38 34° E 21:26:20 10° SSE visible
30 May 4.8 21:40:54 10° N 21:47:17 77° E 21:53:39 10° S visible
31 May 7.2 10:50:25 10° SW 10:54:43 20° W 10:59:01 10° NW visible
31 May 7.4 20:25:54 10° ENE 20:28:41 13° E 20:31:28 10° ESE visible
01 Jun 6.4 20:49:50 10° NNE 20:55:21 31° E 21:00:51 10° SSE visible
02 Jun 4.9 21:15:39 10° N 21:22:00 69° E 21:28:19 10° S visible
03 Jun 7.4 20:01:32 10° ENE 20:03:24 11° E 20:05:16 10° ESE visible
03 Jun 4.7 21:42:25 10° NNW 21:48:37 54° W 21:54:48 10° S visible
04 Jun 6.5 20:24:46 10° NNE 20:30:04 28° E 20:35:20 10° SE visible
05 Jun 5.0 20:50:25 10° N 20:56:42 62° E 21:02:58 10° SSE visible
06 Jun 4.6 21:17:03 10° NNW 21:23:20 61° W 21:29:35 10° S visible
07 Jun 6.6 19:59:45 10° NNE 20:04:47 25° E 20:09:47 10° SE visible
07 Jun 5.4 21:44:42 10° NW 21:49:56 27° W 21:55:10 10° SSW visible
